TimeCST,TemperatureF,Dew PointF,Humidity,Sea Level PressureIn,VisibilityMPH,Wind Direction,Wind SpeedMPH,Gust SpeedMPH,PrecipitationIn,Events,Conditions,WindDirDegrees,DateUTC
12:15 AM,28.4,23.0,80,29.91,7.0,ESE,12.7,-,N/A,,Overcast,110,2013-03-04 06:15:00
12:35 AM,28.4,23.0,80,29.91,10.0,ESE,12.7,19.6,N/A,,Overcast,120,2013-03-04 06:35:00
12:55 AM,28.4,23.0,80,29.89,10.0,East,13.8,18.4,N/A,,Overcast,100,2013-03-04 06:55:00
1:15 AM,28.4,23.0,80,29.89,10.0,ESE,16.1,23.0,N/A,,Overcast,110,2013-03-04 07:15:00
1:55 AM,28.4,23.0,80,29.86,10.0,ESE,12.7,23.0,N/A,,Overcast,110,2013-03-04 07:55:00
2:15 AM,28.4,23.0,80,29.85,10.0,ESE,16.1,21.9,N/A,,Overcast,110,2013-03-04 08:15:00
2:35 AM,28.4,23.0,80,29.85,10.0,ESE,16.1,23.0,N/A,,Overcast,120,2013-03-04 08:35:00
2:55 AM,28.4,23.0,80,29.85,10.0,ESE,13.8,19.6,N/A,,Overcast,110,2013-03-04 08:55:00
3:15 AM,28.4,24.8,86,29.84,10.0,ESE,13.8,19.6,N/A,,Overcast,110,2013-03-04 09:15:00
3:35 AM,28.4,23.0,80,29.83,10.0,ESE,11.5,-,N/A,,Overcast,110,2013-03-04 09:35:00
3:55 AM,28.4,23.0,80,29.82,7.0,East,13.8,-,N/A,,Overcast,100,2013-03-04 09:55:00
4:15 AM,28.4,23.0,80,29.82,7.0,ESE,13.8,17.3,N/A,,Overcast,110,2013-03-04 10:15:00
4:35 AM,28.4,23.0,80,29.82,5.0,ESE,11.5,-,N/A,,Haze,110,2013-03-04 10:35:00
4:55 AM,28.4,24.8,86,29.82,7.0,ESE,10.4,-,N/A,,Overcast,110,2013-03-04 10:55:00
5:15 AM,28.4,24.8,86,29.82,7.0,ESE,10.4,17.3,N/A,,Overcast,110,2013-03-04 11:15:00
5:55 AM,28.4,24.8,86,29.81,7.0,ESE,10.4,17.3,N/A,,Overcast,110,2013-03-04 11:55:00
6:15 AM,30.2,24.8,80,29.82,7.0,ESE,10.4,-,N/A,,Overcast,110,2013-03-04 12:15:00
6:35 AM,30.2,24.8,80,29.82,7.0,ESE,12.7,17.3,N/A,,Overcast,120,2013-03-04 12:35:00
6:55 AM,30.2,24.8,80,29.82,5.0,ESE,11.5,16.1,N/A,,Haze,120,2013-03-04 12:55:00
7:15 AM,28.4,24.8,86,29.82,5.0,ESE,9.2,-,N/A,,Haze,120,2013-03-04 13:15:00
7:35 AM,28.4,24.8,86,29.81,5.0,ESE,10.4,-,N/A,,Haze,110,2013-03-04 13:35:00
7:55 AM,30.2,24.8,80,29.81,7.0,ESE,13.8,18.4,N/A,,Mostly Cloudy,110,2013-03-04 13:55:00
8:15 AM,30.2,24.8,80,29.81,7.0,ESE,12.7,19.6,N/A,,Mostly Cloudy,110,2013-03-04 14:15:00
8:35 AM,30.2,24.8,80,29.81,7.0,ESE,13.8,17.3,N/A,,Overcast,110,2013-03-04 14:35:00
8:55 AM,32.0,26.6,80,29.81,7.0,East,9.2,17.3,N/A,,Overcast,100,2013-03-04 14:55:00
9:15 AM,32.0,26.6,80,29.80,7.0,ESE,11.5,-,N/A,,Mostly Cloudy,110,2013-03-04 15:15:00
9:35 AM,33.8,26.6,75,29.81,7.0,ESE,12.7,-,0.01,,Mostly Cloudy,110,2013-03-04 15:35:00
9:55 AM,33.8,26.6,75,29.81,10.0,East,10.4,-,0.01,,Mostly Cloudy,100,2013-03-04 15:55:00
10:15 AM,35.6,26.6,70,29.80,10.0,East,13.8,18.4,N/A,,Scattered Clouds,100,2013-03-04 16:15:00
10:35 AM,35.6,26.6,70,29.80,10.0,East,8.1,-,N/A,,Scattered Clouds,100,2013-03-04 16:35:00
10:55 AM,37.4,26.6,65,29.80,10.0,East,12.7,18.4,N/A,,Scattered Clouds,100,2013-03-04 16:55:00
11:15 AM,37.4,26.6,65,29.81,10.0,ESE,9.2,-,N/A,,Clear,110,2013-03-04 17:15:00
11:35 AM,37.4,26.6,65,29.81,10.0,East,10.4,-,N/A,,Clear,90,2013-03-04 17:35:00
11:55 AM,37.4,26.6,65,29.81,10.0,East,12.7,16.1,N/A,,Clear,100,2013-03-04 17:55:00
12:15 PM,37.4,28.4,70,29.81,10.0,East,6.9,-,N/A,,Scattered Clouds,100,2013-03-04 18:15:00
12:55 PM,39.2,28.4,65,29.80,10.0,East,9.2,-,N/A,,Clear,90,2013-03-04 18:55:00
1:15 PM,37.4,26.6,65,29.79,10.0,East,13.8,17.3,N/A,,Clear,80,2013-03-04 19:15:00
1:35 PM,37.4,26.6,65,29.79,10.0,East,10.4,18.4,N/A,,Scattered Clouds,100,2013-03-04 19:35:00
1:55 PM,37.4,26.6,65,29.78,10.0,ESE,11.5,-,N/A,,Scattered Clouds,110,2013-03-04 19:55:00
2:15 PM,37.4,26.6,65,29.78,10.0,East,12.7,18.4,N/A,,Clear,90,2013-03-04 20:15:00
2:35 PM,37.4,26.6,65,29.78,10.0,East,11.5,17.3,N/A,,Clear,90,2013-03-04 20:35:00
2:55 PM,37.4,28.4,70,29.78,10.0,East,11.5,17.3,N/A,,Clear,100,2013-03-04 20:55:00
3:15 PM,37.4,26.6,65,29.79,10.0,East,9.2,16.1,N/A,,Clear,100,2013-03-04 21:15:00
3:35 PM,37.4,28.4,70,29.79,10.0,East,12.7,18.4,N/A,,Clear,90,2013-03-04 21:35:00
3:55 PM,37.4,26.6,65,29.79,10.0,East,15.0,19.6,N/A,,Clear,90,2013-03-04 21:55:00
4:15 PM,35.6,26.6,70,29.81,10.0,East,11.5,17.3,N/A,,Clear,90,2013-03-04 22:15:00
4:35 PM,37.4,28.4,70,29.82,10.0,East,11.5,-,N/A,,Clear,80,2013-03-04 22:35:00
4:55 PM,35.6,26.6,70,29.82,10.0,East,9.2,16.1,N/A,,Clear,90,2013-03-04 22:55:00
5:15 PM,35.6,26.6,70,29.83,10.0,East,10.4,-,N/A,,Clear,90,2013-03-04 23:15:00
5:35 PM,35.6,26.6,70,29.83,10.0,East,12.7,-,N/A,,Clear,100,2013-03-04 23:35:00
5:55 PM,33.8,26.6,75,29.84,10.0,East,11.5,16.1,N/A,,Clear,90,2013-03-04 23:55:00
6:15 PM,33.8,26.6,75,29.85,10.0,East,9.2,-,N/A,,Mostly Cloudy,90,2013-03-05 00:15:00
6:35 PM,33.8,26.6,75,29.85,10.0,East,9.2,-,N/A,,Scattered Clouds,90,2013-03-05 00:35:00
6:55 PM,33.8,26.6,75,29.87,10.0,East,8.1,-,N/A,,Clear,90,2013-03-05 00:55:00
7:15 PM,33.8,26.6,75,29.89,10.0,East,6.9,-,N/A,,Scattered Clouds,90,2013-03-05 01:15:00
7:35 PM,33.8,26.6,75,29.91,10.0,East,6.9,-,N/A,,Mostly Cloudy,80,2013-03-05 01:35:00
7:55 PM,33.8,26.6,75,29.91,10.0,East,4.6,-,N/A,,Overcast,90,2013-03-05 01:55:00
8:35 PM,33.8,26.6,75,29.92,10.0,ENE,3.5,-,N/A,,Overcast,60,2013-03-05 02:35:00
8:55 PM,33.8,26.6,75,29.93,10.0,NE,3.5,-,N/A,,Overcast,50,2013-03-05 02:55:00
9:15 PM,33.8,26.6,75,29.93,10.0,ENE,5.8,-,N/A,,Overcast,60,2013-03-05 03:15:00
9:35 PM,32.0,26.6,80,29.93,10.0,ENE,4.6,-,N/A,,Overcast,60,2013-03-05 03:35:00
9:55 PM,32.0,26.6,80,29.93,10.0,ENE,5.8,-,N/A,,Overcast,60,2013-03-05 03:55:00
10:15 PM,32.0,26.6,80,29.93,7.0,East,5.8,-,N/A,Snow,Light Snow,80,2013-03-05 04:15:00
10:35 PM,32.0,26.6,80,29.93,10.0,East,6.9,-,N/A,,Overcast,80,2013-03-05 04:35:00
10:55 PM,32.0,26.6,80,29.92,10.0,East,5.8,-,N/A,,Overcast,80,2013-03-05 04:55:00
11:15 PM,30.2,26.6,86,29.93,4.0,ENE,3.5,-,N/A,Snow,Light Snow,60,2013-03-05 05:15:00
11:35 PM,30.2,26.6,86,29.93,3.0,Calm,Calm,-,N/A,Snow,Light Snow,0,2013-03-05 05:35:00
11:55 PM,30.2,26.6,86,29.93,2.5,Calm,Calm,-,N/A,Snow,Light Snow,0,2013-03-05 05:55:00